Regional Weather Roundup
Issued by NWS

Current Version | Previous Version | Text Only | Print | Product List | Glossary On
Versions: 1 2 3 4 5 6 7 8 9 10 11 12 13 14 15 16 17 18 19 20 21 22 23 24 25 26 27 28 29 30 31 32 33 34 35 36 37 38 39 40 41 42 43 44 45 46 47 48 49 50
000
ASUS44 KOUN 091010
RWROK

WEATHER ROUNDUP FOR OKLAHOMA
NATIONAL WEATHER SERVICE NORMAN OK
400 AM CST FRI DEC 09 2016

NOTE: "FAIR" INDICATES FEW OR NO CLOUDS BELOW 12,000 FEET WITH NO
      SIGNIFICANT WEATHER AND/OR OBSTRUCTIONS TO VISIBILITY.

OKZ001>007-009>012-014-015-017-091100-
NORTHWEST OKLAHOMA AND THE PANHANDLE

CITY           SKY/WX    TMP DP  RH WIND       PRES   REMARKS
GAGE           CLOUDY    25   8  48 SE9       30.52F WCI  15
GUYMON         CLOUDY    25   9  50 S15G21    30.37F WCI  13
ENID/WOODRING  CLOUDY    19  12  73 CALM      30.64S
$$

OKZ016-021>023-033>039-044-045-091100-
SOUTHWEST OKLAHOMA

CITY           SKY/WX    TMP DP  RH WIND       PRES   REMARKS
LAWTON/REGL    CLOUDY    27  17  66 CALM      30.64F
LAWTON/FT SILL CLOUDY    26  13  59 E3        30.61F
FREDERICK      CLOUDY    29  15  56 E3        30.60F
CLINTON        CLOUDY    26  13  57 SE8       30.59F WCI  18
HOBART         CLOUDY    28  14  55 SE5       30.61F WCI  23
ALTUS AFB      CLOUDY    29  16  57 SE6       30.61F WCI  23
$$

OKZ018>020-024>031-091100-
CENTRAL OKLAHOMA

CITY           SKY/WX    TMP DP  RH WIND       PRES   REMARKS
OKLAHOMA CITY  PTCLDY    21  10  62 E7        30.63F WCI  12
OKC/WILEY POST CLOUDY    22  10  60 E6        30.64F WCI  14
OKC/TINKER AFB CLEAR     19   8  63 E6        30.62F WCI  10
STILLWATER     CLOUDY    11   7  84 CALM      30.66F
GUTHRIE        CLOUDY    17  12  80 CALM      30.66F
$$

OKZ008-013-054>072-091100-
NORTHEAST OKLAHOMA

CITY           SKY/WX    TMP DP  RH WIND       PRES   REMARKS
TULSA          CLOUDY    18  13  80 CALM      30.69S
TULSA/JONES    CLOUDY    17  12  80 CALM      30.70S
PONCA CITY     CLOUDY    12   7  80 CALM      30.66F
BARTLESVILLE   CLOUDY    12   8  84 CALM      30.70F
MUSKOGEE       CLOUDY    17  12  80 NW5       30.70S WCI  10
$$

OKZ032-040>043-046>053-073>077-091100-
SOUTH CENTRAL/SOUTHEAST OKLAHOMA

CITY           SKY/WX    TMP DP  RH WIND       PRES   REMARKS
ARDMORE/DWNTWN CLOUDY    28  14  54 N5        30.65F WCI  23
MCALESTER      CLOUDY    19  13  77 CALM      30.68S
$$




USA.gov is the U.S. government's official web portal to all federal, state and local government web resources and services.